Location: Albuquerque Trailhead
(34.7934°N, 106.3736°W)
Time: 16:18:05
(UTC+00:00)

Cosmos 2016 Rocket - Pass Details

Date: 20 June 2021
Orbit: 947 x 1000 km, 83.0° (Epoch: 26 July)

Event Time Altitude Azimuth Distance (km) Brightness Sun altitude
Rises 04:34:07 0° 356° (N) 3,622 7.9 -21.4°
Reaches altitude 10° 04:36:37 10° 358° (N) 2,675 7.0 -21.7°
Maximum altitude 04:42:43 73° 83° (E) 997 3.9 -22.4°
Enters shadow 04:44:35 46° 153° (SSE) 1,257 4.1 -22.7°
